Location: Cheyres
(46.8153°N, 6.7877°E)
Time: 02:11:51
(UTC+00:00)

USA 281 - Pass Details

Date: 11 May 2021
Orbit: 1078 x 1081 km, 106.0° (Epoch: 18 June)

Event Time Altitude Azimuth Distance (km) Brightness Sun altitude
Exits shadow 23:36:55 12° 114° (ESE) 2,741 5.1 -25.0°
Maximum altitude 23:42:18 38° 51° (NE) 1,604 4.4 -25.0°
Drops below altitude 10° 23:48:14 10° 347° (NNW) 2,931 6.4 -24.9°
Sets 23:50:55 0° 340° (NNW) 3,891 7.2 -24.9°
